| time (UTC) | temp F | wind direction | speed MPH | gust MPH | rain 1hr in | rain 24hr in | rain mn in | humidity % | barometer mb |
| 20260504110550 | 56 | 211 | 1.0 | 3.0 | 0.00 | 0.11 | 0.01 | 75 | 1015.1 |
| 20260504100550 | 55 | 196 | 3.0 | 3.0 | 0.00 | 0.11 | 0.01 | 82 | 1015.4 |
| 20260504080944 | 52 | 139 | 2.0 | 5.0 | 0.01 | 0.11 | 0.01 | 90 | 1015.4 |
| 20260504080550 | 52 | 139 | 2.0 | 5.0 | 0.01 | 0.11 | 0.01 | 90 | 1015.4 |
| 20260504041808 | 48 | 5 | 1.0 | 1.0 | 0.01 | 0.11 | 0.01 | 95 | 1014.2 |
| 20260504030307 | 48 | 5 | 1.0 | 2.0 | 0.00 | 0.10 | 0.00 | 94 | 1014.1 |
| 20260504024808 | 49 | 5 | 0.0 | 0.0 | 0.00 | 0.10 | 0.00 | 94 | 1014.1 |
| 20260504023308 | 49 | 5 | 0.0 | 0.0 | 0.00 | 0.10 | 0.00 | 95 | 1014.1 |
| 20260504021808 | 49 | 5 | 2.0 | 3.0 | 0.00 | 0.10 | 0.00 | 95 | 1014.1 |
| 20260504020307 | 49 | 5 | 2.0 | 3.0 | 0.00 | 0.10 | 0.00 | 95 | 1014.1 |
| 20260504011808 | 49 | 355 | 0.0 | 0.0 | 0.00 | 0.10 | 0.00 | 94 | 1014.2 |
| 20260504010309 | 49 | 355 | 1.0 | 1.0 | 0.00 | 0.10 | 0.00 | 94 | 1014.2 |
| 20260504003308 | 50 | 352 | 1.0 | 2.0 | 0.00 | 0.10 | 0.00 | 95 | 1014.2 |
| 20260504001808 | 50 | 0 | 0.0 | 0.0 | 0.00 | 0.11 | 0.00 | 95 | 1014.2 |
| 20260504000308 | 50 | 0 | 1.0 | 3.0 | 0.00 | 0.11 | 0.00 | 95 | 1014.2 |
| 20260503234808 | 50 | 352 | 0.0 | 1.0 | 0.00 | 0.11 | 0.00 | 95 | 1014.2 |
| 20260503233308 | 50 | 343 | 3.0 | 5.0 | 0.00 | 0.11 | 0.00 | 95 | 1014.2 |
| 20260503230307 | 50 | 350 | 2.0 | 3.0 | 0.00 | 0.11 | 0.00 | 95 | 1014.2 |
| 20260503223307 | 50 | 335 | 2.0 | 5.0 | 0.00 | 0.11 | 0.00 | 95 | 1014.2 |
| 20260503221807 | 50 | 331 | 3.0 | 5.0 | 0.00 | 0.12 | 0.00 | 96 | 1014.2 |
| 20260503220308 | 51 | 337 | 3.0 | 5.0 | 0.00 | 0.12 | 0.00 | 96 | 1014.1 |
| 20260503214807 | 51 | 353 | 1.0 | 2.0 | 0.00 | 0.13 | 0.13 | 96 | 1014.1 |
| 20260503211808 | 51 | 352 | 2.0 | 3.0 | 0.00 | 0.13 | 0.13 | 97 | 1014.1 |
| 20260503210310 | 51 | 18 | 3.0 | 3.0 | 0.00 | 0.13 | 0.13 | 97 | 1013.9 |
| 20260503204810 | 52 | 65 | 1.0 | 2.0 | 0.00 | 0.13 | 0.13 | 97 | 1013.8 |
| 20260503203308 | 52 | 65 | 2.0 | 3.0 | 0.00 | 0.13 | 0.13 | 96 | 1013.6 |
| 20260503201809 | 52 | 65 | 0.0 | 0.0 | 0.00 | 0.13 | 0.13 | 96 | 1013.4 |
| 20260503200309 | 52 | 65 | 0.0 | 1.0 | 0.00 | 0.13 | 0.13 | 96 | 1013.2 |
| 20260503184810 | 54 | 84 | 0.0 | 0.0 | 0.00 | 0.13 | 0.13 | 94 | 1012.6 |
| 20260503173308 | 55 | 11 | 1.0 | 3.0 | 0.00 | 0.13 | 0.13 | 93 | 1012.5 |
| 20260503171809 | 55 | 38 | 2.0 | 3.0 | 0.04 | 0.13 | 0.13 | 93 | 1012.5 |
| 20260503170309 | 55 | 68 | 1.0 | 3.0 | 0.06 | 0.13 | 0.13 | 92 | 1012.4 |
| 20260503150309 | 56 | 81 | 2.0 | 3.0 | 0.01 | 0.09 | 0.07 | 91 | 1012.3 |
| 20260503140308 | 56 | 56 | 2.0 | 3.0 | 0.00 | 0.09 | 0.06 | 90 | 1012.4 |
| 20260503130309 | 56 | 175 | 2.0 | 6.0 | 0.01 | 0.09 | 0.06 | 91 | 1012.7 |